User: anonymous   Login
Location: Unspecified
(50.0959°N, 14.3921°E)
Time: 03:21:27
(UTC+01:00)
Language:

WISE - Orbit

View from above orbital plane
View from above orbital plane
View from above satellite
View from above satellite

Ground track
Ground track

The orbit data is extracted from the following two-line orbital elements,

1 36119U 09071A   19045.71744047  .00000671  00000-0  26118-4 0  9996
2 36119  97.3880  81.8011 0002014   3.1714 356.9539 15.29427815509108
Epoch (UTC): 14 February 2019 17:13:06
Eccentricity: 0.0002014
inclination: 97.3880°
perigee height: 476 km
apogee height: 479 km
right ascension of ascending node: 81.8011°
argument of perigee: 3.1714°
revolutions per day: 15.29427815
mean anomaly at epoch: 356.9539°
orbit number at epoch: 50910

The dashed part of the orbit path shows where the satellite is in the earth's shadow,  

DLR